Cloud_Cover
73 100 82 88 92 95 99 100 82 100 100 100 100 100 100 100 100 71 21 46 49 5 5 5 4 5 85 24 5 5 25 89 66 5 38 86 100 99 100 100 100 100 100 100
100 100 100 76 36 14 61 24 18 100 58 100 100 100 100 100 64 100 100 100 74 5 5 5 6 5 97 12 5 91 90 53 92 80 66 81 99 100 100 100 100 100 100 100
99 100 100 99 32 93 22 5 42 35 100 100 100 98 52 94 100 58 85 100 100 88 92 78 99 100 100 6 68 39 87 100 100 100 99 100 100 100 100 100 100 100 100 100
100 100 100 57 23 57 76 20 43 5 96 100 100 100 100 98 100 72 39 82 100 100 100 100 100 100 100 99 100 100 100 98 100 99 100 100 100 100 99 100 100 100 100 100
100 100 100 100 42 35 100 53 100 58 55 100 100 100 100 100 100 98 90 100 100 100 100 100 100 100 100 100 100 100 100 100 100 100 100 100 100 100 100 100 100 100 100 100
100 100 100 100 100 100 100 64 100 100 100 100 100 100 97 100 100 100 100 100 100 100 100 100 100 100 100 100 100 100 100 100 100 100 100 100 100 100 100 100 100 100 100 100
100 100 100 100 100 100 100 100 100 100 100 100 100 100 100 100 100 100 100 100 100 100 100 100 100 100 100 100 100 100 100 100 100 100 100 100 100 100 100 100 100 100 100 100
100 100 92 100 100 100 100 100 100 100 100 100 100 100 100 100 100 100 100 100 100 100 100 100 100 100 100 100 100 100 100 100 100 100 100 100 100 100 100 100 100 100 100 100
100 100 98 100 100 100 100 100 100 100 100 100 100 100 100 100 100 100 100 100 100 100 100 100 100 100 100 100 100 100 100 100 100 100 100 100 100 100 100 100 100 100 100 100
100 100 100 100 100 100 100 100 100 100 100 100 100 100 100 100 100 100 100 100 100 100 100 85 99 99 13 38 100 100 100 100 100 100 100 97 94 100 100 97 100 100 100 100
100 100 100 100 100 100 100 100 100 100 100 100 100 100 100 100 100 100 100 100 100 100 98 44 30 94 14 79 100 100 100 100 100 100 100 100 100 99 100 100 100 100 100 100
100 100 100 100 100 100 100 100 100 100 100 100 100 100 100 100 100 100 100 100 100 100 65 83 100 95 8 5 61 100 100 100 100 100 100 100 100 100 97 97 95 100 100 100
100 100 100 100 100 100 100 100 100 100 100 100 100 100 100 100 100 100 100 100 100 92 11 6 25 26 5 7 98 100 100 100 100 100 100 100 100 100 98 94 100 93 100 100
100 100 100 100 100 100 100 100 100 100 100 100 100 100 100 100 100 100 99 77 34 5 26 80 100 100 100 83 76 100 86 44 85 100 94 100 100 100 100 100 100 100 100 98
100 100 100 100 100 100 100 100 100 100 100 100 100 100 100 100 94 78 44 5 5 5 4 100 100 100 100 100 100 100 100 100 100 100 100 100 100 100 100 100 100 100 100 100
100 100 100 100 100 100 100 100 100 100 100 100 100 100 100 74 61 7 5 5 1 4 45 100 92 100 100 100 100 100 100 100 100 100 100 100 100 100 100 100 100 100 100 99
100 100 100 100 100 100 100 100 100 100 100 100 100 100 100 83 6 5 81 95 100 100 100 100 100 100 100 100 100 100 100 100 100 100 100 100 100 100 100 100 96 100 100 100
58 98 100 100 99 98 100 93 86 82 94 100 100 100 100 84 64 100 100 100 100 100 100 100 100 100 100 100 100 100 100 100 100 88 98 100 100 100 100 100 99 93 87 88
89 99 100 94 100 77 80 96 100 100 95 74 100 82 97 100 93 100 100 100 100 100 100 100 100 100 100 100 100 100 94 100 100 90 99 100 100 100 100 99 98 94 79 67
100 100 100 100 100 100 100 54 23 79 72 100 100 100 100 100 100 100 100 100 100 86 99 99 100 99 100 96 90 100 100 95 100 100 100 100 100 100 100 100 100 100 100 99
100 100 100 100 100 100 100 100 78 100 100 100 100 100 100 100 100 100 100 100 100 100 100 100 100 100 100 89 89 97 100 100 100 100 100 100 100 100 100 100 100 100 100 100
100 100 100 100 100 100 100 100 100 100 100 100 100 100 100 100 100 100 100 100 80 100 100 100 100 100 100 87 96 96 100 100 100 100 100 100 100 100 100 100 100 100 100 100
100 100 100 100 100 100 100 100 100 100 100 100 100 100 100 100 77 100 100 100 88 78 100 98 100 95 100 100 100 100 100 100 100 100 100 100 100 100 100 100 100 100 100 100
98 100 100 100 100 100 100 100 100 100 100 100 100 100 100 100 100 100 87 40 70 93 100 98 98 99 100 100 100 100 100 100 100 100 100 100 100 100 100 100 100 100 100 100
100 100 100 100 100 100 100 100 100 100 100 100 100 98 100 100 100 100 100 100 53 11 76 99 96 95 89 93 100 100 100 100 100 100 100 100 100 100 100 100 100 100 100 100
100 63 78 88 99 100 100 100 100 100 100 100 100 89 95 95 100 100 83 100 32 60 87 98 93 93 100 84 94 100 100 100 100 100 100 100 100 100 100 100 100 100 100 100
100 100 100 100 100 100 97 100 100 100 100 100 100 100 100 100 100 100 100 99 95 98 99 100 61 51 100 100 99 100 100 100 100 100 100 100 100 100 100 100 100 100 100 100